Tracking 19817 objects as of 18-Aug-2019
HD Live streaming from Space Station
objects crossing your sky now

FENGYUN 1C DEB

Track FENGYUN 1C DEB now!
10-day predictions


NORAD ID: 37449
Int'l Code: 1999-025EHT
Perigee: 517.6 km
Apogee: 725.9 km
Inclination: 98.8 °
Period: 97.0 minutes
Semi major axis: 6992 km
RCS: 0.0081 m2 (small)
Launch date: May 10, 1999
Source: People's Republic of China (PRC)
Launch site: Taiyaun Space Center, China (TSC)

Note: This is SATELLITE DEBRIS
aabbcc
Your satellite tracking list
Your tracking list is empty




NASA's NSSDC Master Catalog

Two Line Element Set (TLE):
1 37449U 99025EHT 19225.99452031 +.00000699 +00000-0 +75248-4 0  9998
2 37449 098.8329 305.6133 0148961 111.7027 250.0119 14.84674516532898
Source of the keplerian elements: AFSPC